الصفحة الرئيسية
METAR-TAF:

METAR-TAF

مطار :

Birdsville, أستراليا

دائرة عرض: 25-53-51S, خط طول: 139-20-51E, ارتفاع: 48 متر

مراقبة الطقس الحالي

تاريخ ووقت الإصدار 27 دقيقة قبل الساعة 21:00UTC
ريح 9 عقدة من الجنوب/الجنوب الشرقي
درجة الحرارة 12°درجة مئوية
الرطوبة 47%
ضغط 1022 hPa

METAR: YBDV 172100Z AUTO 16009KT //// // ////// 12/01 Q1022

زمن: 07:27 (21:27 UTC)


TAF: مفقودة

أرصاد الطقس والتوقعات من أكثر من 4000 مطار (تقارير الطقس للمطار METAR والتنبؤ بالطقس بالمطارTAF).

المحطات المتاحة هي النقط الصفراء والحمراء على الخريطة.

حرك المؤشر فوق النقطة لمعرفة اسم المحطة.

ثم انقر لمعرفة أرصاد وتوقعات الطقس.

لتغيير الخارطة: اضغط على الأزرار الخضراء مع رمز الصليب الأسود للتكبير. على الزر الأخضر مع شرطة للتصغير، أو على الأسهم الخضراء للخرائط المجاورة.


METAR-TAF: